Terug naar catalogus

ATLAS 5 CENTAUR DEB

LostHEO
NORAD 49372·DEBRIS·🇺🇸 United States

Gelanceerd Oct 17, 2018 vanaf Cape Canaveral Space Force Station

Loading…

Volgende Passages (komende 24 uur)

TLE

VerouderdSource: Space-Track

Epoch: Dec 25, 2021, 10:19 UTC

1 49372U 18079FZ  21359.43001466 -.00000029  00000-0  00000+0 0  9995
2 49372  11.1193 179.7147 4707628  45.3851 344.6337  1.88407786  2336

Volg ATLAS 5 CENTAUR DEB in realtime met AllMySat

Download on the App Store